EDT,Max TemperatureF,Mean TemperatureF,Min TemperatureF,Max Dew PointF,MeanDew PointF,Min DewpointF,Max Humidity, Mean Humidity, Min Humidity, Max Sea Level PressureIn, Mean Sea Level PressureIn, Min Sea Level PressureIn, Max VisibilityMiles, Mean VisibilityMiles, Min VisibilityMiles, Max Wind SpeedMPH, Mean Wind SpeedMPH, Max Gust SpeedMPH,PrecipitationIn, CloudCover, Events, WindDirDegrees
2013-8-1,75,70,65,64,62,55,87,69,50,29.91,29.87,29.82,10,8,2,17,8,21,0.20,5,Rain-Thunderstorm,236
2013-8-2,76,70,63,62,59,55,93,73,53,29.94,29.90,29.87,10,10,7,17,9,24,0.01,3,Rain-Thunderstorm,223
2013-8-3,74,68,61,65,59,49,84,66,47,29.99,29.94,29.87,10,10,2,13,7,16,0.51,4,Rain,307
2013-8-4,72,68,63,59,53,48,78,64,49,30.11,30.06,30.00,10,10,2,16,9,23,0.00,4,Rain,328
2013-8-5,71,62,53,56,50,47,86,65,44,30.14,30.09,30.02,10,10,10,8,4,12,0.00,1,,222
2013-8-6,79,70,60,60,55,51,78,62,45,30.04,30.00,29.96,10,10,10,13,6,16,0.00,4,,152
2013-8-7,83,75,66,68,62,56,81,70,58,29.96,29.92,29.87,10,10,7,22,13,26,0.01,1,Rain,176
2013-8-8,82,77,71,72,69,64,90,80,69,29.97,29.94,29.89,10,8,5,18,5,23,T,6,Rain-Thunderstorm,235
2013-8-9,74,69,63,70,64,51,93,71,49,30.00,29.93,29.88,10,9,3,13,6,17,0.05,5,Rain,254
2013-8-10,74,68,61,57,53,48,84,64,44,30.13,30.09,30.00,10,10,10,10,5,18,0.00,2,,303
2013-8-11,77,67,56,56,52,47,93,65,36,30.15,30.11,30.04,10,10,9,8,3,14,0.00,1,,30
2013-8-12,74,69,63,65,60,53,87,75,63,30.06,30.00,29.84,10,9,2,15,6,18,0.22,7,Rain,197
2013-8-13,69,65,61,64,57,44,93,73,52,29.97,29.87,29.78,10,8,0,23,9,36,1.23,7,Fog-Rain-Thunderstorm,296
2013-8-14,68,62,56,52,49,47,77,63,48,30.14,30.05,29.96,10,10,10,18,10,26,T,5,Rain,314
2013-8-15,71,62,53,55,51,47,89,68,47,30.18,30.15,30.13,10,10,10,12,7,20,0.00,3,,218
2013-8-16,75,65,54,55,51,48,83,64,44,30.22,30.18,30.14,10,10,10,9,4,14,0.00,0,,311
2013-8-17,78,66,54,60,55,50,86,68,50,30.27,30.24,30.22,10,10,10,14,4,17,0.00,1,,44
2013-8-18,77,70,62,62,58,53,78,66,54,30.23,30.19,30.13,10,10,10,12,6,15,0.00,2,,136
2013-8-19,76,70,63,66,61,56,84,69,53,30.14,30.11,30.07,10,10,6,12,5,14,T,5,Rain,205
2013-8-20,81,72,62,66,59,55,81,62,42,30.17,30.13,30.09,10,10,8,13,6,17,0.00,0,,222
2013-8-21,83,74,65,65,61,57,78,63,47,30.19,30.12,30.04,10,10,8,12,6,14,0.00,0,,214
2013-8-22,80,75,69,69,66,62,84,76,67,30.06,30.01,29.97,10,8,5,18,8,26,T,2,,230
2013-8-23,76,69,62,65,59,50,81,67,53,30.19,30.09,30.01,10,10,10,18,9,22,0.00,0,,51
2013-8-24,76,67,57,57,53,49,78,64,49,30.33,30.29,30.22,10,10,10,14,6,17,0.00,0,,88
2013-8-25,83,71,58,60,54,49,84,58,31,30.34,30.28,30.19,10,10,8,14,7,18,0.00,0,,211
2013-8-26,85,78,70,68,62,56,84,66,48,30.19,30.08,29.97,10,9,0,28,10,43,0.53,3,Fog-Rain,227
2013-8-27,81,76,71,72,69,67,93,81,69,29.98,29.94,29.90,10,7,2,16,8,23,0.02,4,Rain,231
2013-8-28,80,76,71,72,70,68,93,84,74,29.96,29.87,29.83,10,7,1,16,6,21,0.44,6,Rain,95
2013-8-29,81,75,68,70,68,66,97,82,67,30.06,30.02,29.96,10,5,0,12,4,14,0.00,3,Fog,34
2013-8-30,85,77,68,68,66,63,90,73,55,30.01,29.91,29.79,10,9,4,20,6,22,0.52,0,Thunderstorm,226
2013-8-31,79,74,69,70,68,66,90,79,67,29.84,29.80,29.74,10,8,1,17,4,21,T,6,Rain-Thunderstorm,260